| time (UTC) | temp C | wind direction | speed KPH | gust KPH | rain 1hr cm | rain 24hr cm | rain mn cm | humidity % | barometer mb |
| 20260905000433 | 13 | 309 | 4.8 | 11.3 | 0.00 | 0.05 | 0.05 | 70 | 1011.5 |
| 20260904235927 | 13 | 282 | 4.8 | 16.1 | 0.00 | 0.05 | 0.05 | 71 | 1011.5 |
| 20260904235425 | 13 | 284 | 6.4 | 16.1 | 0.03 | 0.05 | 0.05 | 70 | 1011.4 |
| 20260904234925 | 13 | 294 | 6.4 | 16.1 | 0.03 | 0.05 | 0.05 | 73 | 1011.4 |
| 20260904234426 | 13 | 295 | 6.4 | 16.1 | 0.05 | 0.05 | 0.05 | 74 | 1011.3 |
| 20260904233936 | 12 | 235 | 8.0 | 16.1 | 0.05 | 0.05 | 0.05 | 77 | 1011.3 |
| 20260904233717 | 12 | 235 | 6.4 | 16.1 | 0.05 | 0.05 | 0.05 | 80 | 1011.1 |
| 20260904233712 | 12 | 265 | 4.8 | 14.5 | 0.05 | 0.05 | 0.05 | 85 | 1011.0 |
| 20260904232426 | 11 | 288 | 4.8 | 12.9 | 0.05 | 0.05 | 0.05 | 84 | 1011.0 |
| 20260904231923 | 11 | 296 | 4.8 | 9.7 | 0.05 | 0.05 | 0.05 | 85 | 1011.0 |
| 20260904231423 | 11 | 272 | 3.2 | 9.7 | 0.05 | 0.05 | 0.05 | 89 | 1011.0 |
| 20260904230923 | 10 | 265 | 3.2 | 9.7 | 0.05 | 0.05 | 0.05 | 88 | 1011.0 |
| 20260904230706 | 10 | 237 | 4.8 | 11.3 | 0.05 | 0.05 | 0.05 | 87 | 1010.9 |
| 20260904225923 | 10 | 208 | 8.0 | 19.3 | 0.05 | 0.05 | 0.05 | 85 | 1010.9 |
| 20260904225423 | 10 | 207 | 11.3 | 27.4 | 0.03 | 0.03 | 0.03 | 83 | 1011.0 |
| 20260904224945 | 11 | 202 | 14.5 | 32.2 | 0.00 | 0.00 | 0.00 | 75 | 1011.0 |
| 20260904224940 | 10 | 242 | 14.5 | 27.4 | 0.03 | 0.03 | 0.03 | 79 | 1011.1 |
| 20260904223932 | 12 | 204 | 14.5 | 32.2 | 0.00 | 0.00 | 0.00 | 66 | 1010.9 |
| 20260904223432 | 14 | 184 | 6.4 | 29.0 | 0.00 | 0.00 | 0.00 | 60 | 1010.9 |
| 20260904222927 | 16 | 181 | 1.6 | 6.4 | 0.00 | 0.00 | 0.00 | 52 | 1010.6 |
| 20260904222434 | 16 | 121 | 1.6 | 9.7 | 0.00 | 0.00 | 0.00 | 51 | 1010.3 |
| 20260904221408 | 16 | 136 | 3.2 | 16.1 | 0.00 | 0.00 | 0.00 | 50 | 1010.4 |
| 20260904220906 | 16 | 150 | 3.2 | 11.3 | 0.00 | 0.00 | 0.00 | 50 | 1010.3 |
| 20260904220401 | 16 | 115 | 4.8 | 16.1 | 0.00 | 0.00 | 0.00 | 50 | 1010.3 |
| 20260904215854 | 17 | 92 | 4.8 | 16.1 | 0.00 | 0.00 | 0.00 | 48 | 1010.3 |
| 20260904215618 | 17 | 86 | 3.2 | 11.3 | 0.00 | 0.00 | 0.00 | 48 | 1010.4 |
| 20260904214837 | 17 | 81 | 4.8 | 16.1 | 0.00 | 0.00 | 0.00 | 49 | 1010.5 |
| 20260904214332 | 17 | 118 | 6.4 | 17.7 | 0.00 | 0.00 | 0.00 | 49 | 1010.5 |
| 20260904213826 | 17 | 90 | 6.4 | 19.3 | 0.00 | 0.00 | 0.00 | 49 | 1010.5 |
| 20260904213319 | 16 | 92 | 6.4 | 19.3 | 0.00 | 0.00 | 0.00 | 49 | 1010.4 |
| 20260904213044 | 16 | 64 | 6.4 | 16.1 | 0.00 | 0.00 | 0.00 | 50 | 1010.4 |
| 20260904212307 | 16 | 173 | 6.4 | 16.1 | 0.00 | 0.00 | 0.00 | 51 | 1010.5 |
| 20260904211804 | 16 | 96 | 6.4 | 16.1 | 0.00 | 0.00 | 0.00 | 50 | 1010.4 |
| 20260904211300 | 16 | 152 | 6.4 | 16.1 | 0.00 | 0.00 | 0.00 | 50 | 1010.5 |
| 20260904210800 | 16 | 137 | 4.8 | 16.1 | 0.00 | 0.00 | 0.00 | 50 | 1010.5 |
| 20260904210541 | 16 | 116 | 6.4 | 16.1 | 0.00 | 0.00 | 0.00 | 51 | 1010.5 |
| 20260904205755 | 16 | 165 | 8.0 | 20.9 | 0.00 | 0.00 | 0.00 | 51 | 1010.5 |
| 20260904205255 | 16 | 133 | 8.0 | 20.9 | 0.00 | 0.00 | 0.00 | 51 | 1010.6 |
| 20260904204754 | 15 | 82 | 8.0 | 19.3 | 0.00 | 0.00 | 0.00 | 55 | 1010.5 |
| 20260904204254 | 15 | 124 | 8.0 | 19.3 | 0.00 | 0.00 | 0.00 | 56 | 1010.6 |
| 20260904203755 | 14 | 111 | 6.4 | 16.1 | 0.00 | 0.00 | 0.00 | 56 | 1010.6 |
| 20260904203255 | 14 | 143 | 6.4 | 16.1 | 0.00 | 0.00 | 0.00 | 55 | 1010.6 |
| 20260904202754 | 14 | 150 | 6.4 | 19.3 | 0.00 | 0.00 | 0.00 | 55 | 1010.6 |
| 20260904202255 | 14 | 200 | 8.0 | 19.3 | 0.00 | 0.00 | 0.00 | 54 | 1010.6 |
| 20260904201754 | 15 | 198 | 6.4 | 16.1 | 0.00 | 0.00 | 0.00 | 54 | 1010.7 |
| 20260904201254 | 15 | 148 | 6.4 | 19.3 | 0.00 | 0.00 | 0.00 | 55 | 1010.6 |
| 20260904200754 | 14 | 146 | 4.8 | 19.3 | 0.00 | 0.00 | 0.00 | 54 | 1010.8 |
| 20260904200254 | 14 | 142 | 6.4 | 19.3 | 0.00 | 0.00 | 0.00 | 55 | 1010.8 |
| 20260904200016 | 14 | 127 | 8.0 | 19.3 | 0.00 | 0.00 | 0.00 | 55 | 1010.9 |
| 20260904195754 | 14 | 127 | 8.0 | 19.3 | 0.00 | 0.00 | 0.00 | 55 | 1010.9 |
| 20260904195254 | 14 | 126 | 6.4 | 16.1 | 0.00 | 0.00 | 0.00 | 55 | 1011.0 |
| 20260904194751 | 14 | 117 | 6.4 | 16.1 | 0.00 | 0.00 | 0.00 | 54 | 1010.9 |
| 20260904194255 | 14 | 156 | 6.4 | 19.3 | 0.00 | 0.00 | 0.00 | 56 | 1011.0 |
| 20260904194017 | 13 | 169 | 8.0 | 19.3 | 0.00 | 0.00 | 0.00 | 57 | 1011.1 |
| 20260904193754 | 13 | 169 | 8.0 | 19.3 | 0.00 | 0.00 | 0.00 | 57 | 1011.1 |
| 20260904193252 | 13 | 136 | 6.4 | 17.7 | 0.00 | 0.00 | 0.00 | 57 | 1011.1 |
| 20260904193017 | 13 | 120 | 8.0 | 20.9 | 0.00 | 0.00 | 0.00 | 58 | 1011.1 |
| 20260904192253 | 13 | 147 | 9.7 | 20.9 | 0.00 | 0.00 | 0.00 | 57 | 1011.1 |
| 20260904191754 | 13 | 215 | 9.7 | 20.9 | 0.00 | 0.00 | 0.00 | 57 | 1011.1 |
| 20260904191337 | 13 | 207 | 8.0 | 20.9 | 0.00 | 0.00 | 0.00 | 59 | 1011.0 |
| 20260904191324 | 13 | 196 | 8.0 | 20.9 | 0.00 | 0.00 | 0.00 | 58 | 1011.0 |
| 20260904191053 | 13 | 212 | 8.0 | 24.1 | 0.00 | 0.00 | 0.00 | 59 | 1011.0 |
| 20260904185800 | 13 | 176 | 8.0 | 24.1 | 0.00 | 0.00 | 0.00 | 56 | 1011.0 |
| 20260904185256 | 13 | 156 | 8.0 | 17.7 | 0.00 | 0.00 | 0.00 | 56 | 1011.0 |
| 20260904184748 | 13 | 156 | 8.0 | 19.3 | 0.00 | 0.00 | 0.00 | 56 | 1011.0 |
| 20260904184248 | 14 | 198 | 8.0 | 19.3 | 0.00 | 0.00 | 0.00 | 55 | 1011.0 |
| 20260904183749 | 14 | 167 | 9.7 | 19.3 | 0.00 | 0.00 | 0.00 | 54 | 1010.9 |
| 20260904183249 | 14 | 144 | 8.0 | 19.3 | 0.00 | 0.00 | 0.00 | 53 | 1010.8 |
| 20260904182753 | 15 | 147 | 4.8 | 16.1 | 0.00 | 0.00 | 0.00 | 54 | 1010.7 |
| 20260904182509 | 15 | 211 | 4.8 | 19.3 | 0.00 | 0.00 | 0.00 | 55 | 1010.6 |
| 20260904182310 | 15 | 211 | 4.8 | 19.3 | 0.00 | 0.00 | 0.00 | 55 | 1010.6 |
| 20260904181745 | 15 | 198 | 4.8 | 19.3 | 0.00 | 0.00 | 0.00 | 55 | 1010.6 |
| 20260904181237 | 15 | 197 | 4.8 | 16.1 | 0.00 | 0.00 | 0.00 | 56 | 1010.6 |
| 20260904180730 | 14 | 146 | 6.4 | 16.1 | 0.00 | 0.00 | 0.00 | 55 | 1010.6 |
| 20260904180224 | 14 | 123 | 4.8 | 16.1 | 0.00 | 0.00 | 0.00 | 57 | 1010.5 |
| 20260904175720 | 13 | 127 | 1.6 | 8.0 | 0.00 | 0.00 | 0.00 | 59 | 1010.6 |
| 20260904175215 | 13 | 238 | 1.6 | 6.4 | 0.00 | 0.00 | 0.00 | 61 | 1010.7 |
| 20260904175210 | 12 | 326 | 1.6 | 4.8 | 0.00 | 0.00 | 0.00 | 61 | 1010.6 |
| 20260904174953 | 12 | 326 | 1.6 | 4.8 | 0.00 | 0.00 | 0.00 | 61 | 1010.6 |
| 20260904174200 | 12 | 326 | 3.2 | 6.4 | 0.00 | 0.00 | 0.00 | 61 | 1010.6 |
| 20260904173721 | 13 | 267 | 4.8 | 12.9 | 0.00 | 0.00 | 0.00 | 61 | 1010.4 |
| 20260904173708 | 12 | 325 | 3.2 | 11.3 | 0.00 | 0.00 | 0.00 | 61 | 1010.6 |
| 20260904172642 | 13 | 305 | 3.2 | 12.9 | 0.00 | 0.00 | 0.00 | 63 | 1010.5 |
| 20260904172136 | 13 | 310 | 3.2 | 6.4 | 0.00 | 0.00 | 0.00 | 62 | 1010.5 |
| 20260904171630 | 12 | 309 | 1.6 | 9.7 | 0.00 | 0.00 | 0.00 | 62 | 1010.6 |
| 20260904171124 | 13 | 286 | 0.0 | 9.7 | 0.00 | 0.00 | 0.00 | 61 | 1010.6 |
| 20260904170618 | 13 | 317 | 1.6 | 6.4 | 0.00 | 0.00 | 0.00 | 59 | 1010.5 |
| 20260904170112 | 13 | 317 | 1.6 | 6.4 | 0.00 | 0.00 | 0.00 | 61 | 1010.5 |
| 20260904165606 | 13 | 122 | 1.6 | 6.4 | 0.00 | 0.00 | 0.00 | 60 | 1010.5 |
| 20260904165100 | 12 | 125 | 1.6 | 6.4 | 0.00 | 0.00 | 0.00 | 63 | 1010.5 |
| 20260904164555 | 12 | 114 | 0.0 | 6.4 | 0.00 | 0.00 | 0.00 | 63 | 1010.5 |
| 20260904164053 | 12 | 24 | 0.0 | 4.8 | 0.00 | 0.00 | 0.00 | 63 | 1010.4 |
| 20260904163542 | 12 | 5 | 1.6 | 4.8 | 0.00 | 0.00 | 0.00 | 65 | 1010.3 |
| 20260904163036 | 11 | 355 | 1.6 | 4.8 | 0.00 | 0.00 | 0.00 | 66 | 1010.3 |
| 20260904162530 | 11 | 140 | 1.6 | 4.8 | 0.00 | 0.00 | 0.00 | 66 | 1010.2 |
| 20260904162024 | 11 | 140 | 0.0 | 4.8 | 0.00 | 0.00 | 0.00 | 68 | 1010.1 |
| 20260904161519 | 11 | 132 | 0.0 | 3.2 | 0.00 | 0.00 | 0.00 | 67 | 1010.2 |
| 20260904161012 | 11 | 125 | 0.0 | 4.8 | 0.00 | 0.00 | 0.00 | 67 | 1010.2 |
| 20260904160506 | 11 | 125 | 0.0 | 4.8 | 0.00 | 0.00 | 0.00 | 67 | 1010.2 |
| 20260904160000 | 11 | 124 | 1.6 | 4.8 | 0.00 | 0.00 | 0.00 | 67 | 1010.2 |
| 20260904155454 | 11 | 124 | 0.0 | 4.8 | 0.00 | 0.00 | 0.00 | 67 | 1010.1 |
| 20260904154948 | 10 | 124 | 0.0 | 4.8 | 0.00 | 0.00 | 0.00 | 67 | 1010.2 |
| 20260904154720 | 10 | 123 | 1.6 | 4.8 | 0.00 | 0.00 | 0.00 | 67 | 1010.2 |
| 20260904154213 | 10 | 124 | 1.6 | 4.8 | 0.00 | 0.00 | 0.00 | 68 | 1010.1 |
| 20260904153434 | 10 | 131 | 1.6 | 4.8 | 0.00 | 0.00 | 0.00 | 68 | 1010.3 |
| 20260904152926 | 10 | 134 | 1.6 | 4.8 | 0.00 | 0.00 | 0.00 | 67 | 1010.2 |
| 20260904152417 | 10 | 134 | 1.6 | 6.4 | 0.00 | 0.00 | 0.00 | 69 | 1010.3 |
| 20260904151912 | 10 | 134 | 3.2 | 6.4 | 0.00 | 0.00 | 0.00 | 70 | 1010.2 |
| 20260904151412 | 9 | 126 | 1.6 | 6.4 | 0.00 | 0.00 | 0.00 | 69 | 1010.1 |
| 20260904150912 | 9 | 144 | 3.2 | 8.0 | 0.00 | 0.00 | 0.00 | 69 | 1010.1 |
| 20260904150412 | 9 | 143 | 3.2 | 8.0 | 0.00 | 0.00 | 0.00 | 71 | 1009.9 |
| 20260904145912 | 8 | 178 | 3.2 | 8.0 | 0.00 | 0.00 | 0.00 | 71 | 1009.9 |
| 20260904145415 | 8 | 201 | 3.2 | 9.7 | 0.00 | 0.00 | 0.00 | 71 | 1009.7 |
| 20260904144912 | 8 | 146 | 3.2 | 9.7 | 0.00 | 0.00 | 0.00 | 73 | 1009.6 |
| 20260904144411 | 8 | 146 | 3.2 | 9.7 | 0.00 | 0.00 | 0.00 | 74 | 1009.5 |
| 20260904143912 | 7 | 139 | 3.2 | 9.7 | 0.00 | 0.00 | 0.00 | 75 | 1009.5 |
| 20260904143411 | 7 | 142 | 3.2 | 9.7 | 0.00 | 0.00 | 0.00 | 76 | 1009.4 |
| 20260904142912 | 7 | 144 | 4.8 | 9.7 | 0.00 | 0.00 | 0.00 | 77 | 1009.5 |
| 20260904142408 | 6 | 129 | 3.2 | 8.0 | 0.00 | 0.00 | 0.00 | 77 | 1009.5 |
| 20260904141907 | 6 | 146 | 1.6 | 8.0 | 0.00 | 0.00 | 0.00 | 78 | 1009.5 |
| 20260904141654 | 6 | 150 | 1.6 | 8.0 | 0.00 | 0.00 | 0.00 | 78 | 1009.3 |
| 20260904140909 | 6 | 150 | 1.6 | 8.0 | 0.00 | 0.00 | 0.00 | 78 | 1009.3 |
| 20260904140408 | 6 | 151 | 3.2 | 8.0 | 0.00 | 0.00 | 0.00 | 78 | 1009.3 |
| 20260904140148 | 6 | 149 | 4.8 | 11.3 | 0.00 | 0.00 | 0.00 | 79 | 1009.2 |
| 20260904135417 | 6 | 136 | 1.6 | 11.3 | 0.00 | 0.00 | 0.00 | 79 | 1009.2 |
| 20260904134919 | 6 | 144 | 1.6 | 4.8 | 0.00 | 0.00 | 0.00 | 80 | 1009.2 |
| 20260904134419 | 6 | 142 | 1.6 | 6.4 | 0.00 | 0.00 | 0.00 | 80 | 1009.1 |
| 20260904134138 | 6 | 142 | 3.2 | 6.4 | 0.00 | 0.00 | 0.00 | 80 | 1009.0 |
| 20260904133404 | 6 | 146 | 1.6 | 4.8 | 0.00 | 0.00 | 0.00 | 80 | 1008.9 |
| 20260904132906 | 6 | 146 | 0.0 | 3.2 | 0.00 | 0.00 | 0.00 | 79 | 1008.9 |
| 20260904132354 | 6 | 146 | 0.0 | 0.0 | 0.00 | 0.00 | 0.00 | 78 | 1008.7 |
| 20260904131845 | 6 | 146 | 0.0 | 0.0 | 0.00 | 0.00 | 0.00 | 78 | 1008.9 |
| 20260904131613 | 6 | 146 | 0.0 | 0.0 | 0.00 | 0.00 | 0.00 | 78 | 1008.9 |
| 20260904131104 | 6 | 146 | 0.0 | 0.0 | 0.00 | 0.00 | 0.00 | 78 | 1009.0 |
| 20260904130328 | 6 | 146 | 0.0 | 6.4 | 0.00 | 0.00 | 0.00 | 77 | 1009.0 |
| 20260904125822 | 6 | 146 | 1.6 | 6.4 | 0.00 | 0.00 | 0.00 | 77 | 1008.7 |
| 20260904125316 | 7 | 146 | 1.6 | 8.0 | 0.00 | 0.00 | 0.00 | 77 | 1008.7 |
| 20260904124811 | 7 | 146 | 3.2 | 8.0 | 0.00 | 0.00 | 0.00 | 77 | 1008.6 |
| 20260904124305 | 6 | 161 | 1.6 | 6.4 | 0.00 | 0.00 | 0.00 | 77 | 1008.7 |
| 20260904123800 | 6 | 150 | 1.6 | 6.4 | 0.00 | 0.00 | 0.00 | 78 | 1008.7 |
| 20260904123253 | 6 | 141 | 1.6 | 6.4 | 0.00 | 0.00 | 0.00 | 78 | 1008.7 |
| 20260904123019 | 6 | 152 | 1.6 | 4.8 | 0.00 | 0.00 | 0.00 | 78 | 1008.7 |
| 20260904122242 | 6 | 146 | 1.6 | 4.8 | 0.00 | 0.00 | 0.00 | 79 | 1008.7 |
| 20260904121733 | 6 | 146 | 1.6 | 4.8 | 0.00 | 0.00 | 0.00 | 78 | 1008.7 |
| 20260904121226 | 7 | 144 | 1.6 | 4.8 | 0.00 | 0.00 | 0.00 | 78 | 1008.6 |
| 20260904120721 | 7 | 144 | 1.6 | 6.4 | 0.00 | 0.00 | 0.00 | 79 | 1008.5 |
| 20260904120216 | 7 | 144 | 1.6 | 6.4 | 0.00 | 0.00 | 0.00 | 80 | 1008.5 |
| 20260904115941 | 7 | 142 | 1.6 | 6.4 | 0.00 | 0.00 | 0.00 | 80 | 1008.5 |
| 20260904115204 | 7 | 142 | 1.6 | 6.4 | 0.00 | 0.00 | 0.00 | 80 | 1008.5 |
| 20260904114703 | 7 | 140 | 1.6 | 6.4 | 0.00 | 0.00 | 0.00 | 80 | 1008.4 |
| 20260904114155 | 7 | 137 | 0.0 | 4.8 | 0.00 | 0.00 | 0.00 | 79 | 1008.4 |
| 20260904113646 | 7 | 137 | 1.6 | 4.8 | 0.00 | 0.00 | 0.00 | 80 | 1008.3 |
| 20260904113140 | 7 | 132 | 1.6 | 4.8 | 0.00 | 0.00 | 0.00 | 80 | 1008.3 |
| 20260904112636 | 7 | 128 | 1.6 | 4.8 | 0.00 | 0.00 | 0.00 | 80 | 1008.2 |
| 20260904112127 | 7 | 123 | 0.0 | 0.0 | 0.00 | 0.00 | 0.00 | 80 | 1008.2 |
| 20260904111858 | 7 | 123 | 0.0 | 0.0 | 0.00 | 0.00 | 0.00 | 79 | 1008.3 |
| 20260904111115 | 7 | 123 | 0.0 | 0.0 | 0.00 | 0.00 | 0.00 | 79 | 1008.1 |
| 20260904110611 | 7 | 123 | 0.0 | 0.0 | 0.00 | 0.00 | 0.00 | 79 | 1008.2 |
| 20260904110104 | 7 | 123 | 0.0 | 0.0 | 0.00 | 0.00 | 0.00 | 80 | 1008.1 |
| 20260904105600 | 7 | 123 | 0.0 | 3.2 | 0.00 | 0.00 | 0.00 | 80 | 1008.1 |
| 20260904105054 | 7 | 123 | 0.0 | 3.2 | 0.00 | 0.00 | 0.00 | 79 | 1008.1 |
| 20260904104545 | 7 | 122 | 1.6 | 6.4 | 0.00 | 0.00 | 0.00 | 79 | 1008.2 |
| 20260904104308 | 7 | 121 | 1.6 | 6.4 | 0.00 | 0.00 | 0.00 | 79 | 1008.1 |
| 20260904103534 | 7 | 114 | 0.0 | 4.8 | 0.00 | 0.00 | 0.00 | 79 | 1008.1 |
| 20260904103301 | 7 | 102 | 0.0 | 3.2 | 0.00 | 0.00 | 0.00 | 80 | 1008.1 |
| 20260904102521 | 7 | 95 | 0.0 | 1.6 | 0.00 | 0.00 | 0.00 | 80 | 1008.1 |
| 20260904102017 | 8 | 95 | 0.0 | 1.6 | 0.00 | 0.00 | 0.00 | 79 | 1008.0 |
| 20260904101510 | 8 | 95 | 0.0 | 6.4 | 0.00 | 0.00 | 0.00 | 78 | 1008.1 |
| 20260904101004 | 8 | 95 | 0.0 | 6.4 | 0.00 | 0.00 | 0.00 | 78 | 1007.9 |
| 20260904100500 | 8 | 76 | 0.0 | 1.6 | 0.00 | 0.00 | 0.00 | 78 | 1007.9 |
| 20260904095955 | 8 | 76 | 0.0 | 3.2 | 0.00 | 0.00 | 0.00 | 78 | 1007.9 |
| 20260904095445 | 8 | 76 | 0.0 | 3.2 | 0.00 | 0.00 | 0.00 | 78 | 1007.9 |
| 20260904094940 | 8 | 74 | 0.0 | 0.0 | 0.00 | 0.00 | 0.00 | 78 | 1007.8 |
| 20260904094433 | 8 | 74 | 0.0 | 3.2 | 0.00 | 0.00 | 0.00 | 78 | 1008.0 |
| 20260904094158 | 8 | 74 | 0.0 | 3.2 | 0.00 | 0.00 | 0.00 | 78 | 1008.0 |
| 20260904093422 | 8 | 74 | 0.0 | 3.2 | 0.00 | 0.00 | 0.00 | 78 | 1008.0 |
| 20260904092917 | 8 | 74 | 0.0 | 3.2 | 0.00 | 0.00 | 0.00 | 78 | 1008.0 |
| 20260904092401 | 8 | 74 | 0.0 | 3.2 | 0.00 | 0.00 | 0.00 | 78 | 1008.1 |
| 20260904092139 | 8 | 70 | 0.0 | 0.0 | 0.00 | 0.00 | 0.00 | 77 | 1008.0 |
| 20260904091638 | 8 | 70 | 0.0 | 0.0 | 0.00 | 0.00 | 0.00 | 77 | 1008.0 |
| 20260904090910 | 8 | 70 | 0.0 | 0.0 | 0.00 | 0.00 | 0.00 | 76 | 1008.1 |
| 20260904090641 | 8 | 70 | 0.0 | 1.6 | 0.00 | 0.00 | 0.00 | 76 | 1008.1 |
| 20260904085904 | 8 | 70 | 0.0 | 1.6 | 0.00 | 0.00 | 0.00 | 75 | 1008.0 |
| 20260904085403 | 8 | 70 | 0.0 | 1.6 | 0.00 | 0.00 | 0.00 | 75 | 1008.0 |
| 20260904085135 | 8 | 70 | 0.0 | 0.0 | 0.00 | 0.00 | 0.00 | 75 | 1008.0 |
| 20260904084403 | 8 | 70 | 0.0 | 0.0 | 0.00 | 0.00 | 0.00 | 75 | 1008.0 |
| 20260904083900 | 8 | 70 | 0.0 | 0.0 | 0.00 | 0.00 | 0.00 | 75 | 1008.0 |
| 20260904083405 | 8 | 70 | 0.0 | 0.0 | 0.00 | 0.00 | 0.00 | 75 | 1007.9 |
| 20260904082924 | 8 | 70 | 0.0 | 0.0 | 0.00 | 0.00 | 0.00 | 75 | 1007.9 |
| 20260904082920 | 8 | 70 | 0.0 | 0.0 | 0.00 | 0.00 | 0.00 | 75 | 1007.9 |
| 20260904081859 | 8 | 70 | 0.0 | 0.0 | 0.00 | 0.00 | 0.00 | 75 | 1007.9 |
| 20260904081400 | 8 | 70 | 0.0 | 0.0 | 0.00 | 0.00 | 0.00 | 75 | 1007.9 |
| 20260904080900 | 8 | 70 | 0.0 | 0.0 | 0.00 | 0.00 | 0.00 | 75 | 1007.9 |
| 20260904080358 | 8 | 70 | 0.0 | 0.0 | 0.00 | 0.00 | 0.00 | 76 | 1007.9 |
| 20260904075859 | 8 | 70 | 0.0 | 0.0 | 0.00 | 0.00 | 0.00 | 75 | 1007.9 |
| 20260904075359 | 8 | 70 | 0.0 | 1.6 | 0.00 | 0.00 | 0.00 | 76 | 1007.8 |
| 20260904074857 | 8 | 70 | 0.0 | 1.6 | 0.00 | 0.00 | 0.00 | 75 | 1007.9 |
| 20260904074355 | 8 | 70 | 0.0 | 0.0 | 0.00 | 0.00 | 0.00 | 75 | 1007.9 |
| 20260904073847 | 8 | 70 | 0.0 | 0.0 | 0.00 | 0.00 | 0.00 | 75 | 1007.8 |
| 20260904073340 | 9 | 70 | 0.0 | 1.6 | 0.00 | 0.00 | 0.00 | 75 | 1007.8 |
| 20260904072834 | 9 | 70 | 0.0 | 1.6 | 0.00 | 0.00 | 0.00 | 74 | 1007.7 |
| 20260904072327 | 9 | 70 | 0.0 | 4.8 | 0.00 | 0.00 | 0.00 | 74 | 1007.5 |
| 20260904071823 | 10 | 70 | 0.0 | 4.8 | 0.00 | 0.00 | 0.00 | 73 | 1007.5 |
| 20260904071316 | 10 | 331 | 0.0 | 1.6 | 0.00 | 0.00 | 0.00 | 73 | 1007.7 |
| 20260904070810 | 10 | 330 | 0.0 | 1.6 | 0.00 | 0.00 | 0.00 | 72 | 1007.7 |
| 20260904070305 | 10 | 330 | 0.0 | 1.6 | 0.00 | 0.00 | 0.00 | 72 | 1007.7 |
| 20260904070033 | 9 | 330 | 0.0 | 0.0 | 0.00 | 0.00 | 0.00 | 71 | 1007.8 |
| 20260904065255 | 9 | 330 | 0.0 | 0.0 | 0.00 | 0.00 | 0.00 | 72 | 1007.8 |
| 20260904064747 | 9 | 330 | 0.0 | 1.6 | 0.00 | 0.00 | 0.00 | 72 | 1007.8 |
| 20260904064243 | 9 | 330 | 0.0 | 0.0 | 0.00 | 0.00 | 0.00 | 72 | 1007.8 |
| 20260904063736 | 9 | 330 | 0.0 | 0.0 | 0.00 | 0.00 | 0.00 | 71 | 1007.7 |
| 20260904063458 | 9 | 330 | 0.0 | 0.0 | 0.00 | 0.00 | 0.00 | 71 | 1007.7 |
| 20260904062723 | 9 | 330 | 0.0 | 0.0 | 0.00 | 0.00 | 0.00 | 71 | 1007.7 |
| 20260904062217 | 9 | 330 | 0.0 | 0.0 | 0.00 | 0.00 | 0.00 | 71 | 1007.7 |
| 20260904061712 | 9 | 331 | 0.0 | 0.0 | 0.00 | 0.00 | 0.00 | 71 | 1007.7 |
| 20260904061208 | 10 | 331 | 0.0 | 0.0 | 0.00 | 0.00 | 0.00 | 70 | 1007.5 |
| 20260904060937 | 10 | 331 | 0.0 | 0.0 | 0.00 | 0.00 | 0.00 | 71 | 1007.5 |
| 20260904060154 | 10 | 331 | 0.0 | 0.0 | 0.00 | 0.00 | 0.00 | 71 | 1007.5 |
| 20260904055651 | 10 | 331 | 0.0 | 0.0 | 0.00 | 0.00 | 0.00 | 70 | 1007.7 |
| 20260904055143 | 10 | 331 | 0.0 | 0.0 | 0.00 | 0.00 | 0.00 | 70 | 1007.5 |
| 20260904054636 | 10 | 331 | 0.0 | 0.0 | 0.00 | 0.00 | 0.00 | 70 | 1007.5 |
| 20260904054130 | 10 | 331 | 0.0 | 0.0 | 0.00 | 0.00 | 0.00 | 70 | 1007.7 |
| 20260904053623 | 10 | 331 | 0.0 | 0.0 | 0.00 | 0.00 | 0.00 | 70 | 1007.7 |
| 20260904053121 | 10 | 331 | 0.0 | 0.0 | 0.00 | 0.00 | 0.00 | 69 | 1007.8 |
| 20260904052843 | 10 | 331 | 0.0 | 0.0 | 0.00 | 0.00 | 0.00 | 69 | 1007.8 |
| 20260904052110 | 10 | 331 | 0.0 | 0.0 | 0.00 | 0.00 | 0.00 | 69 | 1007.7 |
| 20260904051833 | 10 | 331 | 0.0 | 0.0 | 0.00 | 0.00 | 0.00 | 68 | 1007.7 |
| 20260904051110 | 10 | 331 | 0.0 | 3.2 | 0.00 | 0.00 | 0.00 | 68 | 1007.8 |
| 20260904051102 | 10 | 331 | 0.0 | 3.2 | 0.00 | 0.00 | 0.00 | 68 | 1007.8 |
| 20260904050041 | 11 | 330 | 1.6 | 6.4 | 0.00 | 0.00 | 0.00 | 68 | 1007.7 |
| 20260904045536 | 11 | 330 | 3.2 | 6.4 | 0.00 | 0.00 | 0.00 | 67 | 1007.7 |
| 20260904045030 | 11 | 329 | 3.2 | 9.7 | 0.00 | 0.03 | 0.00 | 67 | 1007.7 |
| 20260904044524 | 11 | 332 | 3.2 | 9.7 | 0.00 | 0.03 | 0.00 | 66 | 1007.4 |
| 20260904044018 | 11 | 338 | 3.2 | 11.3 | 0.00 | 0.03 | 0.00 | 66 | 1007.4 |
| 20260904043511 | 11 | 332 | 3.2 | 11.3 | 0.00 | 0.03 | 0.00 | 66 | 1007.5 |
| 20260904043021 | 11 | 311 | 4.8 | 9.7 | 0.00 | 0.03 | 0.00 | 66 | 1007.4 |
| 20260904043016 | 11 | 315 | 4.8 | 11.3 | 0.00 | 0.03 | 0.00 | 66 | 1007.4 |
| 20260904041955 | 11 | 337 | 3.2 | 9.7 | 0.00 | 0.03 | 0.00 | 65 | 1007.4 |
| 20260904041448 | 11 | 318 | 4.8 | 11.3 | 0.00 | 0.03 | 0.00 | 65 | 1007.4 |
| 20260904041215 | 11 | 315 | 4.8 | 11.3 | 0.00 | 0.03 | 0.00 | 65 | 1007.4 |
| 20260904040436 | 11 | 308 | 4.8 | 11.3 | 0.00 | 0.03 | 0.00 | 64 | 1007.4 |
| 20260904035930 | 11 | 290 | 6.4 | 14.5 | 0.00 | 0.03 | 0.00 | 64 | 1007.3 |
| 20260904035654 | 11 | 310 | 6.4 | 17.7 | 0.00 | 0.03 | 0.00 | 63 | 1007.4 |
| 20260904034918 | 11 | 307 | 4.8 | 17.7 | 0.00 | 0.03 | 0.00 | 63 | 1007.5 |
| 20260904034412 | 12 | 313 | 6.4 | 14.5 | 0.00 | 0.03 | 0.00 | 63 | 1007.4 |
| 20260904034130 | 12 | 309 | 6.4 | 14.5 | 0.00 | 0.03 | 0.00 | 62 | 1007.3 |
| 20260904033400 | 12 | 317 | 6.4 | 14.5 | 0.00 | 0.03 | 0.00 | 62 | 1007.2 |
| 20260904032854 | 12 | 284 | 4.8 | 16.1 | 0.00 | 0.03 | 0.00 | 62 | 1007.1 |
| 20260904032348 | 12 | 258 | 3.2 | 16.1 | 0.00 | 0.03 | 0.00 | 62 | 1006.9 |
| 20260904032116 | 12 | 314 | 3.2 | 11.3 | 0.00 | 0.03 | 0.00 | 61 | 1006.9 |
| 20260904031342 | 12 | 298 | 4.8 | 16.1 | 0.00 | 0.03 | 0.00 | 61 | 1006.6 |
| 20260904030842 | 12 | 307 | 6.4 | 19.3 | 0.00 | 0.03 | 0.00 | 61 | 1006.6 |
| 20260904030342 | 12 | 348 | 8.0 | 19.3 | 0.00 | 0.03 | 0.00 | 60 | 1006.6 |
| 20260904025841 | 12 | 321 | 8.0 | 16.1 | 0.00 | 0.03 | 0.00 | 59 | 1006.6 |
| 20260904025614 | 12 | 309 | 8.0 | 16.1 | 0.00 | 0.03 | 0.00 | 59 | 1006.6 |
| 20260904024841 | 12 | 292 | 6.4 | 16.1 | 0.00 | 0.03 | 0.00 | 58 | 1006.6 |
| 20260904024342 | 13 | 304 | 6.4 | 16.1 | 0.00 | 0.03 | 0.00 | 57 | 1006.6 |
| 20260904024123 | 13 | 309 | 6.4 | 16.1 | 0.00 | 0.03 | 0.00 | 56 | 1006.5 |
| 20260904023403 | 13 | 301 | 6.4 | 16.1 | 0.00 | 0.03 | 0.00 | 55 | 1006.5 |
| 20260904023359 | 13 | 324 | 6.4 | 16.1 | 0.00 | 0.03 | 0.00 | 56 | 1006.5 |
| 20260904022343 | 13 | 318 | 6.4 | 12.9 | 0.00 | 0.03 | 0.00 | 55 | 1006.4 |
| 20260904021842 | 13 | 342 | 6.4 | 14.5 | 0.00 | 0.03 | 0.00 | 55 | 1006.4 |
| 20260904021403 | 13 | 330 | 4.8 | 14.5 | 0.00 | 0.03 | 0.00 | 54 | 1006.4 |
| 20260904021357 | 13 | 325 | 4.8 | 14.5 | 0.00 | 0.03 | 0.00 | 55 | 1006.4 |
| 20260904020343 | 13 | 317 | 6.4 | 14.5 | 0.00 | 0.03 | 0.00 | 54 | 1006.4 |
| 20260904015841 | 13 | 298 | 6.4 | 14.5 | 0.00 | 0.03 | 0.00 | 53 | 1006.4 |
| 20260904015343 | 14 | 260 | 4.8 | 14.5 | 0.00 | 0.03 | 0.00 | 53 | 1006.4 |
| 20260904014841 | 14 | 312 | 4.8 | 16.1 | 0.00 | 0.03 | 0.00 | 52 | 1006.2 |
| 20260904014335 | 14 | 319 | 4.8 | 16.1 | 0.00 | 0.03 | 0.00 | 51 | 1006.4 |
| 20260904013829 | 14 | 340 | 3.2 | 14.5 | 0.00 | 0.03 | 0.00 | 50 | 1006.1 |
| 20260904013323 | 15 | 323 | 3.2 | 9.7 | 0.00 | 0.03 | 0.00 | 49 | 1006.1 |
| 20260904012816 | 15 | 326 | 3.2 | 12.9 | 0.00 | 0.03 | 0.00 | 48 | 1006.1 |
| 20260904012309 | 15 | 295 | 4.8 | 12.9 | 0.00 | 0.03 | 0.00 | 47 | 1006.1 |
| 20260904011803 | 15 | 325 | 4.8 | 12.9 | 0.00 | 0.05 | 0.00 | 47 | 1006.0 |
| 20260904011258 | 15 | 328 | 3.2 | 12.9 | 0.00 | 0.05 | 0.00 | 48 | 1006.0 |
| 20260904010751 | 15 | 331 | 1.6 | 12.9 | 0.00 | 0.05 | 0.00 | 47 | 1006.1 |
| 20260904010245 | 15 | 333 | 1.6 | 6.4 | 0.00 | 0.08 | 0.00 | 47 | 1006.1 |
| 20260904005739 | 15 | 338 | 3.2 | 8.0 | 0.00 | 0.10 | 0.00 | 47 | 1006.0 |
| 20260904005503 | 15 | 344 | 3.2 | 8.0 | 0.00 | 0.15 | 0.00 | 46 | 1006.0 |
| 20260904004727 | 16 | 347 | 3.2 | 6.4 | 0.00 | 0.18 | 0.00 | 45 | 1006.0 |
| 20260904004221 | 16 | 329 | 3.2 | 6.4 | 0.00 | 0.20 | 0.00 | 45 | 1006.0 |
| 20260904003719 | 16 | 301 | 1.6 | 6.4 | 0.00 | 0.20 | 0.00 | 45 | 1006.0 |
| 20260904003210 | 16 | 261 | 1.6 | 4.8 | 0.00 | 0.23 | 0.00 | 44 | 1006.1 |
| 20260904002702 | 17 | 148 | 0.0 | 3.2 | 0.00 | 0.23 | 0.00 | 43 | 1006.0 |
| 20260904002433 | 17 | 148 | 0.0 | 3.2 | 0.00 | 0.23 | 0.00 | 44 | 1006.0 |
| 20260904001651 | 16 | 148 | 0.0 | 4.8 | 0.00 | 0.23 | 0.00 | 45 | 1006.0 |
| 20260904001146 | 16 | 148 | 1.6 | 4.8 | 0.00 | 0.23 | 0.00 | 46 | 1006.1 |
| 20260904000639 | 16 | 166 | 1.6 | 8.0 | 0.00 | 0.23 | 0.00 | 45 | 1006.0 |